Probability
0 0 0 0 0 0 0 0 0 1 3 9 19 24 20 10 3 2 4 9 13 14 9 5 4 3 1 0 0 0 0 0 0 0 0 0 0 0 0 0 0 0 0 0 0 0 0 0 0
0 0 0 0 0 0 0 0 0 2 7 17 28 31 24 13 6 4 7 10 14 15 12 7 6 3 1 0 0 0 0 0 0 0 0 0 0 0 0 0 0 0 0 0 0 0 0 0 0
0 0 0 0 0 0 0 0 2 7 16 28 38 36 24 13 8 8 10 13 16 17 15 12 9 5 1 0 0 0 0 0 0 0 0 0 0 0 0 0 0 0 0 0 0 0 0 0 0
0 0 0 0 0 0 0 0 4 12 25 39 46 39 23 13 14 16 16 18 20 20 17 15 13 7 1 0 0 0 0 0 0 0 0 0 0 0 0 0 0 0 0 0 0 0 0 0 0
0 0 0 0 0 0 0 1 7 19 32 46 52 41 24 18 26 30 25 24 26 23 17 14 14 9 3 0 0 0 0 0 0 0 0 0 0 0 0 0 0 0 0 0 0 0 0 0 0
0 0 0 0 0 0 1 2 9 22 34 46 51 41 25 25 36 38 29 26 28 26 19 15 14 10 5 1 0 0 0 0 0 0 0 0 0 0 0 0 0 0 0 0 0 0 0 0 1
0 0 0 0 0 1 2 3 8 19 30 38 44 38 26 28 39 38 30 28 29 27 23 19 15 10 5 1 0 0 0 0 0 0 0 0 0 0 0 0 0 0 0 0 0 0 0 1 2
0 0 0 0 1 2 3 3 8 18 27 31 35 34 29 33 40 39 34 31 30 26 23 21 16 9 4 1 0 0 0 0 0 0 0 0 0 0 0 0 0 0 0 0 0 0 0 1 2
0 0 0 0 1 2 3 4 9 21 31 35 35 34 37 43 48 45 39 35 30 23 19 18 14 8 3 1 0 0 0 0 0 0 0 0 0 0 0 0 0 0 0 0 0 0 0 0 1
0 0 0 0 1 2 3 3 10 23 35 42 43 43 50 57 58 54 45 38 30 22 16 13 10 7 4 1 1 0 0 0 0 0 0 0 0 0 0 0 0 0 0 0 0 0 0 0 0
0 0 0 0 1 2 2 2 9 20 32 43 49 52 58 63 63 58 49 40 32 22 14 10 9 8 5 3 2 0 0 0 0 0 0 0 0 0 0 0 0 0 0 0 0 0 0 0 0
0 0 0 0 1 1 1 4 9 16 27 40 48 52 56 60 61 59 53 44 36 26 16 11 10 8 6 4 2 0 0 0 0 0 0 0 0 0 0 0 0 0 0 0 0 0 0 0 0
0 0 0 0 0 1 2 6 11 19 32 42 45 46 48 53 56 57 54 48 40 29 20 17 15 11 8 7 3 1 0 0 0 0 0 0 0 0 0 0 0 0 0 0 0 0 0 0 0
0 0 0 0 0 1 3 7 16 29 43 48 45 41 40 43 49 51 50 46 39 30 26 27 24 18 13 10 6 2 0 0 0 0 0 0 0 0 0 0 0 0 0 0 0 0 0 0 0
0 0 0 0 0 1 3 7 18 33 45 49 46 40 36 38 41 40 38 37 35 32 33 34 31 24 17 12 8 4 1 0 0 0 0 0 0 0 0 0 0 0 0 0 0 0 0 0 0
0 0 0 0 0 1 2 5 15 31 42 46 44 38 34 34 33 29 28 31 34 34 35 35 33 27 18 11 7 5 2 0 0 0 0 0 0 0 0 0 0 0 0 0 0 0 0 0 0
0 0 0 0 0 0 1 6 16 29 40 42 37 30 28 29 26 21 22 26 28 28 28 31 31 26 17 10 7 4 1 0 0 0 0 0 0 0 0 0 0 0 0 0 0 0 0 0 0
0 0 0 0 0 0 3 10 18 28 34 34 27 21 20 22 19 16 16 18 18 17 21 26 27 22 14 9 6 3 1 0 0 0 0 0 0 0 0 0 0 0 0 0 0 0 0 0 0
0 0 0 0 0 2 6 12 17 21 23 20 15 14 15 17 15 13 12 12 12 11 15 22 23 19 12 7 5 3 1 0 0 0 0 0 0 0 0 0 0 0 0 0 0 0 0 0 0
0 0 0 0 1 3 6 9 11 13 13 9 7 9 12 16 16 14 11 11 9 7 10 16 18 15 9 5 4 3 1 0 0 0 0 0 0 0 0 0 0 0 0 0 0 0 0 0 0
0 0 0 0 1 2 3 3 5 7 7 5 4 5 9 14 17 16 12 10 7 6 8 11 13 10 6 4 3 2 1 0 0 0 0 0 0 0 0 0 0 0 0 0 0 0 0 0 0
0 0 0 0 0 0 0 1 2 3 3 3 3 3 4 8 14 15 13 9 6 5 6 8 9 7 4 2 3 2 1 0 0 0 0 0 0 0 0 0 0 0 0 0 0 0 0 0 0
0 0 0 0 0 0 0 0 1 1 2 2 2 1 1 3 8 12 11 8 6 5 6 7 7 5 2 1 1 1 0 0 0 0 0 0 0 0 0 0 0 0 0 0 0 0 0 0 0
0 0 0 0 0 0 0 0 0 0 1 1 1 0 0 2 5 8 8 7 6 6 6 6 5 3 1 0 0 0 0 0 0 0 0 0 0 0 0 0 0 0 0 0 0 0 0 0 0
0 0 0 0 0 0 0 0 0 0 0 0 0 0 1 2 4 7 8 7 7 7 6 5 4 3 1 0 0 0 0 0 0 0 0 0 0 0 0 0 0 0 0 0 0 0 0 0 0
0 0 0 0 0 0 0 0 0 0 0 0 0 0 1 2 3 5 7 7 6 6 6 6 4 2 1 0 0 0 0 0 0 0 0 0 0 0 0 0 0 0 0 0 0 0 0 0 0
0 0 0 0 0 0 0 0 0 0 0 0 0 1 1 1 2 2 4 4 4 4 6 7 6 3 1 0 0 0 0 0 0 0 0 0 0 0 0 0 0 0 0 0 0 0 0 0 0
0 0 0 0 0 0 0 0 0 0 0 0 0 0 0 0 0 0 1 2 2 4 7 9 8 5 2 0 0 0 0 0 0 0 0 0 0 0 0 0 0 0 0 0 0 0 0 0 0
1 1 0 0 0 0 0 0 0 0 0 0 0 0 0 0 0 0 1 2 4 6 9 10 9 6 3 1 0 0 1 1 1 1 0 0 0 0 0 0 0 0 0 0 0 0 0 0 0
2 2 1 0 0 0 0 0 0 0 0 0 0 0 0 0 0 0 1 4 6 9 11 11 9 7 5 2 1 1 2 2 2 2 1 0 0 0 0 0 0 0 0 0 0 0 0 0 0
Wind_Speed
6 5 2 1 2 2 3 5 5 5 2 3 8 11 8 5 3 4 4 15 18 16 14 17 19 19 18 18 17 17 17 16 15 15 15 14 14 14 13 13 12 11 11 11 10 9 9 9 8
3 4 2 2 2 1 5 5 6 5 6 9 10 10 8 4 4 7 7 16 19 17 13 15 19 19 19 18 17 17 17 16 15 15 14 14 14 13 12 12 12 11 10 10 9 9 9 8 8
3 3 2 1 1 4 4 3 6 5 6 7 7 6 6 4 4 4 8 16 16 14 12 16 21 20 19 18 17 17 17 16 15 15 14 13 13 13 12 12 11 10 10 9 9 8 8 8 8
1 2 2 0 6 8 6 6 6 7 5 6 9 7 4 4 5 9 16 16 16 12 11 15 20 20 19 18 17 17 17 16 15 14 13 13 12 12 11 11 11 10 9 9 8 7 7 7 7
2 2 2 3 6 6 4 4 7 7 5 6 9 7 3 1 10 17 17 16 16 11 9 14 20 20 19 18 18 17 16 16 15 14 13 12 12 11 11 11 10 9 9 8 7 6 6 6 6
2 2 1 4 6 5 0 5 8 9 8 8 9 8 3 5 14 16 16 15 15 14 10 12 19 20 19 18 18 17 16 15 15 14 13 12 11 10 10 10 10 9 9 8 7 5 4 4 5
2 1 3 5 5 2 1 4 7 8 7 5 7 7 4 6 12 15 14 14 14 13 11 9 11 14 18 18 17 17 16 15 14 13 12 12 11 10 10 9 9 9 8 8 7 5 3 3 4
4 1 4 3 3 2 0 3 6 8 6 5 6 9 8 10 13 15 13 12 12 11 11 9 8 8 9 10 16 16 15 14 13 12 11 11 10 10 10 8 8 9 8 7 7 5 4 2 1
3 1 5 5 3 2 1 3 4 5 7 4 3 6 9 15 17 17 13 10 11 11 9 9 9 8 7 7 12 12 13 13 11 9 10 8 4 4 5 7 9 9 8 8 6 5 4 2 0
5 4 8 5 2 1 1 2 5 5 5 3 4 6 13 16 18 20 19 16 14 13 11 9 10 9 8 8 6 4 5 5 4 3 4 3 2 3 5 6 9 9 8 7 6 6 4 2 0
6 8 8 5 3 1 1 2 3 8 3 6 10 12 15 15 15 17 16 15 14 13 11 9 9 9 8 5 5 3 2 3 3 3 3 2 2 1 2 1 2 3 5 2 3 3 1 1 1
4 7 6 5 2 1 1 2 3 4 6 9 12 13 13 14 14 14 15 13 12 12 11 9 8 7 7 7 5 4 3 3 2 3 3 3 2 2 2 1 1 1 1 2 2 1 2 2 2
3 4 5 4 3 1 2 3 4 2 5 9 11 10 11 10 9 8 11 12 12 12 11 10 9 8 7 6 5 5 4 4 3 3 3 4 3 2 2 1 1 1 1 2 2 2 2 2 2
5 7 8 6 4 2 2 2 4 3 7 10 10 8 7 8 8 9 9 9 10 11 10 9 9 8 7 6 5 5 5 4 4 3 4 4 3 3 2 2 1 1 1 2 2 2 2 2 2
5 7 10 7 3 2 4 0 3 6 9 9 9 8 7 7 8 9 10 10 10 10 9 9 10 8 7 7 7 6 5 5 4 3 4 4 4 3 3 2 2 1 1 2 2 2 1 1 1
5 4 5 8 4 3 6 4 3 8 11 9 8 8 8 6 8 8 9 9 9 10 9 10 11 9 7 6 6 6 5 5 4 3 3 4 4 4 3 3 2 1 2 2 2 2 2 1 1
3 3 6 7 5 3 4 3 3 8 10 9 8 7 7 7 6 7 9 9 10 11 11 9 9 10 8 7 6 6 5 5 4 3 3 3 4 4 3 2 2 3 3 3 2 2 2 1 1
9 7 6 6 4 2 3 2 4 6 8 7 7 6 6 7 8 8 8 9 8 9 10 9 9 8 8 6 6 5 5 4 3 3 3 4 3 4 4 3 3 3 4 3 2 3 2 1 1
12 9 7 5 2 5 5 4 4 5 5 6 6 6 7 7 6 7 8 9 8 8 9 10 9 8 7 6 6 5 4 4 3 3 4 4 4 4 4 3 3 3 3 2 2 2 3 2 1
12 8 4 2 5 6 5 3 2 4 5 7 7 6 6 6 7 7 8 8 8 8 9 9 9 9 8 6 5 4 5 3 3 2 3 4 4 4 4 4 3 3 3 3 3 3 2 2 2
9 5 3 2 5 6 4 2 2 1 2 4 6 6 6 9 10 10 10 10 10 10 10 10 9 8 7 7 5 4 4 3 2 2 2 2 4 4 4 4 3 3 3 2 2 3 3 2 2
8 4 1 3 4 3 3 1 6 3 2 3 4 5 6 7 8 9 10 10 10 10 9 9 8 8 7 7 7 8 6 4 4 3 3 3 3 4 4 4 4 3 3 3 2 3 2 3 2
6 1 4 4 5 4 4 1 6 2 2 3 4 6 7 8 10 10 10 10 10 10 9 9 9 7 6 6 7 7 5 4 3 3 4 3 2 3 4 4 4 4 3 3 3 3 3 3 2
3 4 6 6 6 4 2 1 7 4 5 4 4 6 7 9 10 9 9 8 8 8 8 9 9 7 7 7 6 7 7 6 5 5 4 3 2 2 3 4 4 4 3 3 3 3 3 2 3
4 4 4 6 5 2 3 1 9 8 4 6 7 7 7 9 10 10 10 9 9 9 9 9 10 8 7 7 6 6 7 7 7 6 6 4 3 3 4 4 4 3 3 4 3 3 3 3 3
6 5 6 4 4 2 2 5 8 7 3 3 6 7 8 9 9 11 11 11 10 11 11 11 11 9 8 8 6 5 6 5 4 5 5 5 5 5 5 6 5 5 5 4 4 2 2 2 2
3 3 7 7 3 3 3 5 9 3 0 2 5 7 8 9 10 11 11 11 11 11 11 12 12 10 9 8 7 6 5 5 5 5 5 4 4 5 6 6 6 6 5 5 4 3 3 3 3
4 6 5 5 4 2 3 4 5 4 4 4 6 8 9 9 10 11 11 11 11 10 10 10 11 11 9 9 8 7 6 6 6 5 5 5 5 5 6 6 7 6 6 5 5 3 3 3 3
2 2 5 5 6 7 4 7 8 9 8 8 9 9 9 10 11 11 11 10 10 9 10 11 11 10 9 9 8 7 6 6 6 5 6 6 5 5 7 7 7 7 7 6 5 5 4 5 4
5 6 8 6 4 5 5 7 4 8 8 9 9 8 9 10 10 11 11 10 9 9 10 11 11 11 10 9 8 7 6 5 6 6 6 5 5 5 6 7 7 8 7 7 7 7 7 6 6
Wind_Direction
188 194 171 51 58 33 254 221 191 212 204 103 101 106 109 102 146 164 137 139 138 143 147 145 142 140 138 135 133 130 128 126 123 121 119 117 117 115 115 113 111 110 109 109 106 102 96 92 89
191 192 156 55 93 304 266 214 188 189 149 121 93 93 85 61 64 104 124 141 140 142 144 144 142 141 139 138 136 134 132 131 129 127 126 124 123 122 120 118 116 114 114 112 108 102 95 89 84
220 190 128 99 208 212 250 231 176 146 129 114 101 83 102 124 114 123 140 140 137 139 141 144 142 141 140 139 138 137 135 135 135 133 132 130 129 128 126 124 122 118 118 116 110 104 95 86 80
154 72 48 68 257 250 243 229 165 134 96 85 107 95 97 135 146 140 141 141 135 136 140 144 143 142 141 141 140 139 139 139 138 137 136 135 134 134 132 130 128 126 123 120 115 108 96 84 74
104 89 32 294 267 270 257 180 137 119 117 109 109 109 86 56 127 138 146 143 137 136 141 143 143 143 143 143 143 143 143 143 142 142 142 142 141 141 140 138 136 133 130 125 120 113 99 84 70
38 82 56 274 276 288 208 118 111 104 112 114 107 116 128 150 138 145 146 143 140 140 140 143 145 144 145 146 146 147 147 147 148 148 149 149 148 147 147 147 147 145 141 137 134 127 109 86 69
157 152 237 255 287 313 119 111 112 118 120 127 129 116 137 164 152 146 144 140 139 140 143 144 146 146 148 149 150 150 151 151 153 154 155 155 157 159 159 159 160 157 154 153 151 148 136 96 67
175 96 291 276 284 290 131 105 121 123 125 128 128 137 163 175 150 140 140 138 139 143 147 146 144 143 146 151 154 154 155 156 159 161 163 166 169 172 174 173 176 172 169 167 166 165 162 144 75
168 100 271 266 265 272 137 104 96 99 116 121 135 153 157 151 143 140 139 139 146 150 151 151 148 146 145 151 159 157 159 162 164 167 172 173 175 180 183 189 191 187 184 182 181 180 180 187 71
150 188 240 240 248 296 35 104 131 116 106 106 109 121 135 144 149 151 155 158 160 161 161 160 157 155 155 160 149 152 155 157 157 163 168 161 170 191 193 205 202 198 195 192 191 193 192 185 76
191 208 246 266 285 340 32 55 102 126 148 178 162 155 147 148 155 157 160 162 163 161 161 164 163 163 163 149 152 152 143 147 155 164 160 147 150 170 171 168 205 205 198 185 196 197 172 157 156
244 255 262 276 288 345 102 120 103 151 188 178 165 158 151 153 159 159 159 156 155 155 161 163 163 164 164 152 157 154 146 150 152 152 140 127 121 119 131 142 164 161 160 165 171 181 181 171 161
299 298 301 296 303 184 124 134 139 162 149 148 150 146 150 150 145 144 145 149 153 158 161 162 163 163 159 152 157 153 150 150 144 128 117 122 120 122 125 130 134 148 146 155 167 174 174 172 165
290 307 306 301 302 278 145 144 124 170 140 140 146 143 140 134 132 135 143 155 166 165 159 159 161 161 155 153 146 143 141 138 126 116 117 115 115 114 114 104 99 103 134 151 158 161 163 175 169
316 324 314 295 278 244 121 4 204 161 147 146 153 149 145 141 134 151 163 167 171 163 154 160 154 149 149 145 142 136 136 131 122 120 116 109 107 106 108 101 86 64 85 115 111 110 108 125 144
331 325 296 282 244 220 125 239 219 156 152 152 160 160 156 146 147 158 158 167 168 158 158 164 152 146 144 135 132 131 133 128 127 125 114 102 100 104 95 93 75 59 75 95 103 90 92 84 99
319 268 268 282 244 194 145 220 174 160 156 158 159 165 159 151 153 157 159 167 171 166 158 152 146 147 143 133 128 127 129 128 132 124 113 105 99 101 96 88 67 77 78 78 99 82 99 102 107
273 278 278 274 268 141 120 151 139 155 156 156 156 162 159 160 168 162 159 164 168 158 152 149 149 142 134 125 118 116 118 128 129 128 132 120 109 103 99 91 72 79 80 67 70 73 65 101 125
261 275 281 293 342 88 105 127 153 151 146 157 162 165 164 164 166 160 159 162 165 154 152 153 151 146 141 139 141 141 142 146 142 150 148 131 121 107 98 95 81 82 86 82 77 75 59 37 47
270 276 276 333 46 93 102 110 174 159 176 177 177 178 168 158 158 166 163 166 168 166 160 158 158 153 154 151 150 146 143 151 154 153 147 141 132 125 116 113 105 98 90 69 58 68 76 29 45
282 258 238 165 81 62 90 11 311 267 174 181 174 178 176 171 167 169 169 169 171 174 169 168 165 158 158 149 130 119 100 93 97 138 160 162 144 134 126 123 116 110 109 101 82 78 92 68 17
289 276 155 101 87 29 53 316 287 280 267 207 183 180 183 172 168 171 174 173 177 179 171 165 167 162 158 149 147 148 148 159 182 181 177 172 158 149 142 132 123 116 116 114 107 93 97 104 55
284 358 66 76 98 69 23 76 290 294 256 228 196 193 186 178 174 175 176 175 178 177 171 167 166 164 161 156 156 153 153 167 163 159 163 172 174 171 164 149 132 129 129 129 111 102 94 103 110
259 64 46 50 68 46 301 153 276 250 226 209 197 192 182 176 175 174 175 172 175 174 171 169 166 170 169 163 164 164 164 162 157 165 172 183 190 196 189 168 153 150 150 148 141 128 119 113 109
324 75 19 353 22 256 271 237 256 256 238 203 193 186 177 173 175 177 178 178 179 178 176 173 171 174 176 174 175 177 170 165 169 174 180 180 190 204 207 184 174 168 174 171 158 144 143 143 136
264 151 169 211 218 222 284 251 263 276 271 198 182 173 171 174 177 180 182 181 184 184 181 175 176 178 181 181 186 183 173 166 175 181 182 189 198 205 199 190 187 185 181 179 169 164 177 166 164
225 215 175 141 131 128 247 277 303 298 310 154 162 168 184 183 183 181 181 183 187 188 185 181 179 181 184 186 187 189 185 181 186 189 190 195 204 209 200 192 190 192 188 185 178 188 201 192 200
184 165 102 119 150 188 237 249 241 242 213 201 188 186 191 184 182 183 186 188 190 189 186 182 181 184 186 189 192 196 196 197 197 194 203 205 206 205 191 193 192 194 195 191 186 197 209 200 215
249 141 129 137 154 154 201 248 221 204 198 195 200 192 188 188 189 188 189 192 191 188 185 187 187 185 189 194 197 199 199 201 201 203 211 211 209 199 192 192 192 195 200 197 195 208 207 210 226
196 184 151 154 204 162 171 252 244 197 199 194 197 191 187 188 194 192 187 185 185 187 186 189 190 190 194 195 195 200 200 200 205 214 217 211 211 205 196 192 194 202 206 203 202 213 213 212 222